GW1738 Weather Reports


time (UTC)temp
C
wind
direction
speed
KPH
gust
KPH
rain 1hr
cm
rain 24hr
cm
rain mn
cm
humidity
%
barometer
mb
20260507181316 11 167 1.6 3.2 0.03 3.17 3.15 91 1011.2
20260507180328 11 140 1.6 3.2 0.00 3.15 3.12 91 1011.2
20260507175332 11 112 0.0 3.2 0.00 3.15 3.12 92 1011.2
20260507174316 11 136 0.0 3.2 0.00 3.15 3.12 93 1011.4
20260507173320 11 270 0.0 4.8 0.00 3.15 3.12 93 1011.6
20260507172321 11 148 1.6 4.8 0.00 3.15 3.12 92 1011.8
20260507171355 11 277 0.0 4.8 0.00 3.15 3.12 95 1011.7
20260507170357 11 276 0.0 1.6 0.00 3.15 3.12 94 1011.9
20260507164322 11 251 1.6 3.2 0.00 3.15 3.12 92 1012.1
20260507163326 11 200 0.0 3.2 0.00 3.15 3.12 94 1012.1
20260507162329 11 198 0.0 8.0 0.00 3.15 3.12 94 1012.3
20260507161318 11 132 0.0 3.2 0.00 3.15 3.12 94 1012.1
20260507160322 12 118 0.0 1.6 0.00 3.23 3.12 96 1011.9
20260507155324 12 118 0.0 1.6 0.00 3.23 3.12 96 1012.3
20260507154324 12 118 0.0 3.2 0.00 3.23 3.12 96 1011.7
20260507153325 12 216 0.0 1.6 0.00 3.23 3.12 95 1012.1
20260507152329 12 216 0.0 1.6 0.00 3.23 3.12 96 1011.9
20260507151335 12 177 0.0 1.6 0.00 3.23 3.12 96 1012.1
20260507150339 12 170 0.0 0.0 0.00 3.30 3.12 96 1012.1
20260507145323 12 170 0.0 1.6 0.00 3.30 3.12 96 1012.1
20260507144327 12 170 0.0 3.2 0.00 3.30 3.12 96 1012.0
20260507143330 12 134 0.0 4.8 0.00 3.30 3.12 95 1011.5
20260507142352 12 135 0.0 3.2 0.00 3.30 3.12 96 1012.0
20260507141319 12 132 0.0 3.2 0.00 3.30 3.12 95 1012.0
20260507140322 12 131 0.0 3.2 0.00 3.33 3.12 94 1012.2
20260507135341 13 190 1.6 6.4 0.00 3.33 3.12 95 1012.1
20260507134326 13 253 0.0 3.2 0.00 3.33 3.12 98 1012.1
20260507133331 13 209 1.6 3.2 0.00 3.33 3.12 98 1012.0
20260507132337 13 242 0.0 1.6 0.00 3.33 3.12 99 1011.6
20260507131327 13 175 0.0 1.6 0.00 3.33 3.12 98 1011.4
20260507130331 13 175 0.0 1.6 0.00 3.33 3.12 98 1011.5
20260507125333 13 157 0.0 1.6 0.00 3.33 3.12 98 1011.6
20260507124316 13 157 0.0 1.6 0.00 3.33 3.12 98 1011.8
20260507123321 13 169 0.0 1.6 0.03 3.33 3.12 98 1011.7
20260507122344 13 169 0.0 1.6 0.03 3.33 3.12 98 1011.6
20260507121346 13 144 0.0 1.6 0.03 3.33 3.12 98 1011.4
20260507120331 13 137 0.0 1.6 0.03 3.33 3.12 98 1011.4
20260507115333 13 137 0.0 1.6 0.03 3.33 3.12 98 1011.4
20260507114404 12 137 0.0 0.0 0.05 3.33 3.12 98 1011.8
20260507113347 12 137 0.0 0.0 0.08 3.30 3.10 98 1011.5
20260507112330 12 137 0.0 1.6 0.36 3.30 3.10 98 1011.6
20260507111338 12 137 0.0 1.6 0.61 3.30 3.10 98 1011.0
20260507110316 12 136 0.0 1.6 0.94 3.30 3.10 97 1011.4
20260507105317 12 136 0.0 3.2 1.32 3.30 3.10 97 1011.1
20260507104340 12 93 0.0 4.8 1.78 3.28 3.07 96 1011.1
20260507103323 13 327 0.0 3.2 2.51 3.23 3.02 96 1011.0
20260507102324 13 282 1.6 6.4 2.59 2.92 2.72 95 1011.0
20260507101328 13 229 0.0 6.4 2.44 2.69 2.49 95 1010.8
20260507100330 14 46 3.2 6.4 2.13 2.36 2.16 95 1010.5
20260507095334 14 167 3.2 6.4 1.78 1.98 1.78 94 1010.8
20260507094337 15 283 1.6 9.7 1.30 1.50 1.30 93 1010.2
20260507093342 17 291 3.2 8.0 0.48 0.69 0.48 91 1010.4
20260507092324 18 9 0.0 3.2 0.13 0.33 0.13 97 1009.9
20260507091330 18 117 0.0 3.2 0.05 0.25 0.05 96 1010.1
20260507090334 18 95 0.0 0.0 0.03 0.23 0.03 96 1009.9
20260507085316 18 95 0.0 0.0 0.00 0.20 0.00 96 1009.9
20260507084342 18 95 0.0 1.6 0.00 0.20 0.00 96 1010.0
20260507083324 18 59 0.0 1.6 0.00 0.20 0.00 96 1009.8
20260507082325 18 35 0.0 0.0 0.00 0.20 0.00 95 1009.7
20260507081352 18 35 0.0 1.6 0.00 0.20 0.00 95 1009.3
20260507080403 18 35 0.0 1.6 0.00 0.20 0.00 95 1009.3
20260507075325 18 5 1.6 3.2 0.00 0.20 0.00 95 1009.2
20260507074348 18 37 0.0 1.6 0.00 0.20 0.00 95 1008.9
20260507073331 18 26 0.0 3.2 0.00 0.20 0.00 95 1009.0
20260507072316 18 69 0.0 3.2 0.00 0.20 0.00 96 1009.3
20260507071327 18 75 0.0 1.6 0.00 0.20 0.00 96 1009.5
20260507070331 18 70 0.0 1.6 0.00 0.20 0.00 96 1009.8
20260507065338 18 74 0.0 1.6 0.00 0.20 0.00 95 1009.6
20260507064336 18 74 0.0 1.6 0.00 0.20 0.00 95 1009.4
20260507063342 18 55 0.0 1.6 0.00 0.20 0.00 95 1009.5
20260507062325 18 55 0.0 1.6 0.00 0.20 0.00 95 1009.3
20260507061334 18 55 0.0 0.0 0.00 0.20 0.00 95 1009.5
20260507060337 18 55 0.0 0.0 0.00 0.20 0.00 95 1009.4
20260507055339 18 55 0.0 0.0 0.00 0.20 0.00 95 1009.4
20260507054322 18 46 0.0 0.0 0.00 0.20 0.00 94 1009.6
20260507053346 18 46 0.0 0.0 0.00 0.20 0.00 94 1009.5
20260507052325 18 46 0.0 0.0 0.00 0.20 0.00 94 1009.7
20260507051332 18 46 0.0 3.2 0.00 0.20 0.00 94 1009.8
20260507050335 18 46 0.0 3.2 0.00 0.20 0.00 94 1010.0
20260507045317 18 184 1.6 3.2 0.00 0.20 0.00 94 1010.5
20260507044336 18 155 0.0 0.0 0.00 0.20 0.00 94 1010.9
20260507043322 18 155 0.0 0.0 0.00 0.20 0.00 94 1011.0
20260507042354 18 155 0.0 0.0 0.00 0.20 0.00 94 1010.8
20260507041401 18 155 0.0 0.0 0.00 0.20 0.00 94 1010.6
20260507035326 18 155 0.0 0.0 0.00 0.20 0.20 94 1010.4
20260507034331 18 155 0.0 1.6 0.00 0.20 0.20 94 1010.5
20260507033355 18 155 0.0 1.6 0.00 0.20 0.20 94 1010.4
20260507032337 18 155 0.0 1.6 0.00 0.20 0.20 94 1010.1
20260507031324 18 155 0.0 1.6 0.00 0.20 0.20 94 1010.1
20260507030353 18 155 0.0 0.0 0.00 0.20 0.20 94 1010.4
20260507025316 18 155 0.0 1.6 0.00 0.20 0.20 94 1010.0
20260507024348 18 155 0.0 0.0 0.00 0.20 0.20 94 1010.1
20260507023351 18 155 0.0 0.0 0.00 0.20 0.20 94 1010.3
20260507022334 18 155 0.0 0.0 0.00 0.20 0.20 94 1010.4
20260507021342 18 155 0.0 0.0 0.00 0.20 0.20 94 1010.3
20260507020326 18 155 0.0 0.0 0.00 0.20 0.20 94 1010.6
20260507015328 18 155 0.0 0.0 0.00 0.20 0.20 94 1011.0
20260507014332 18 155 0.0 0.0 0.00 0.20 0.20 94 1010.6
20260507013350 18 155 0.0 0.0 0.00 0.20 0.20 93 1010.4
20260507012333 18 155 0.0 0.0 0.00 0.20 0.20 93 1010.4
20260507011339 18 155 0.0 0.0 0.00 0.20 0.20 92 1010.3
20260507010323 18 155 0.0 0.0 0.00 0.20 0.20 91 1010.3
20260507005355 18 155 0.0 0.0 0.00 0.20 0.20 91 1010.3
20260507004337 18 155 0.0 0.0 0.00 0.20 0.20 91 1010.1
20260507003339 19 155 0.0 0.0 0.00 0.20 0.20 90 1010.3
20260507002323 19 155 0.0 1.6 0.00 0.20 0.20 90 1010.4
20260507001330 19 155 0.0 0.0 0.00 0.20 0.20 89 1010.5
20260507000354 19 155 0.0 0.0 0.00 0.20 0.20 90 1010.7
20260506235317 20 155 0.0 0.0 0.00 0.20 0.20 90 1010.5
20260506234338 20 155 0.0 0.0 0.00 0.20 0.20 88 1010.3
20260506233342 20 155 0.0 0.0 0.00 0.20 0.20 88 1010.1
20260506232324 20 155 0.0 0.0 0.00 0.20 0.20 88 1010.1
20260506231332 20 155 0.0 1.6 0.00 0.20 0.20 88 1010.1
20260506230336 20 155 0.0 1.6 0.00 0.20 0.20 87 1010.3
20260506225335 20 155 0.0 0.0 0.00 0.20 0.20 86 1010.2
20260506224339 20 155 0.0 0.0 0.00 0.20 0.20 86 1010.2
20260506223341 20 155 0.0 1.6 0.00 0.20 0.20 84 1010.2
20260506222324 21 155 0.0 1.6 0.00 0.20 0.20 83 1010.2
20260506221332 21 155 0.0 1.6 0.00 0.20 0.20 82 1010.1
20260506220318 21 155 1.6 3.2 0.00 0.20 0.20 81 1010.2
20260506215338 21 238 0.0 3.2 0.00 0.20 0.20 80 1010.0
20260506214322 21 196 0.0 6.4 0.00 0.20 0.20 80 1010.1
20260506213346 21 279 1.6 3.2 0.00 0.20 0.20 80 1010.3
20260506212329 21 227 0.0 3.2 0.00 0.20 0.20 81 1010.4
20260506211337 20 240 1.6 3.2 0.00 0.20 0.20 80 1010.4
20260506210320 20 214 1.6 3.2 0.00 0.20 0.20 84 1010.2
20260506205325 20 179 1.6 3.2 0.00 0.20 0.20 84 1010.0
20260506204331 20 188 0.0 1.6 0.00 0.20 0.20 85 1010.4
20260506203333 20 188 0.0 3.2 0.00 0.20 0.20 86 1010.3
20260506202319 20 253 0.0 3.2 0.00 0.20 0.20 85 1010.4
20260506201328 20 216 0.0 3.2 0.00 0.20 0.20 84 1010.1
20260506200331 20 167 1.6 3.2 0.00 0.20 0.20 83 1009.9
20260506195333 20 236 1.6 12.9 0.00 0.20 0.20 85 1009.6
20260506194334 20 180 1.6 8.0 0.00 0.20 0.20 85 1009.6
20260506193338 20 182 0.0 3.2 0.03 0.20 0.20 86 1009.6
20260506192319 20 197 0.0 4.8 0.03 0.20 0.20 88 1009.9
20260506191327 19 252 1.6 6.4 0.03 0.20 0.20 87 1010.0
20260506190328 19 172 1.6 6.4 0.03 0.20 0.20 88 1010.1
20260506185400 18 148 0.0 3.2 0.03 0.20 0.20 90 1010.2
20260506184341 18 158 0.0 3.2 0.03 0.20 0.20 91 1010.9
20260506183324 18 218 0.0 6.4 0.00 0.18 0.18 92 1011.3
20260506182326 18 257 0.0 1.6 0.00 0.18 0.18 94 1011.6